Tracking 22779 objects as of 12-Apr-2021
HD Live streaming from Space Station
objects crossing your sky now

TJS-3

Track TJS-3 now!
TJS-3 is classified as:


NORAD ID: 43874
Int'l Code: 2018-110A
Perigee: 35,779.9 km
Apogee: 35,808.7 km
Inclination: 0.0 °
Period: 1,436.1 minutes
Semi major axis: 42165 km
RCS: Unknown
Launch date: December 24, 2018
Source: People's Republic of China (PRC)
Launch site: Xichang Space Center, China (XSC)
aabbcc
Your satellite tracking list
Your tracking list is empty




NASA's NSSDC Master Catalog

Two Line Element Set (TLE):
1 43874U 18110A   21101.94285562 -.00000216  00000-0  00000-0 0  9993
2 43874   0.0068 338.7459 0003412 101.5521 187.2204  1.00269675  8442
Source of the keplerian elements: AFSPC